Lid_Strength_Index
3 3 3 2 2 2 3 3 3 4 5 6 6 7 8 9 10 10 10 10 10 11 11 11 12 14 14 14 15 15 15 14 14 14 13 14 14 13 13 12 13 13 13
3 3 3 2 2 2 3 3 3 5 5 5 6 7 8 9 9 10 11 11 11 12 12 13 13 15 15 15 15 16 15 14 13 14 14 15 14 14 13 13 14 14 14
3 3 3 3 3 3 3 4 4 5 6 6 7 8 8 9 10 10 10 12 13 13 14 14 15 15 16 16 16 16 15 16 14 14 15 15 15 15 15 15 15 15 15
4 4 4 3 3 3 3 4 5 5 6 7 8 8 8 9 10 11 12 13 13 14 15 15 15 16 16 16 16 16 16 16 16 15 15 16 15 16 15 15 15 15 15
4 4 4 4 3 3 4 4 5 6 6 6 8 8 8 9 11 12 13 13 13 15 15 15 15 15 15 15 16 16 16 16 16 16 16 16 16 17 16 16 16 16 15
7 8 7 6 5 4 4 5 6 6 7 8 9 10 11 11 12 12 13 14 14 15 16 16 16 17 15 14 14 14 14 15 16 16 16 16 16 15 16 16 16 16 14
9 9 10 10 10 10 10 10 11 11 12 11 12 12 12 11 12 13 13 14 15 15 15 16 17 17 17 16 14 13 13 13 13 14 15 15 15 15 16 18 18 17 16
12 11 12 12 12 13 12 12 12 13 12 13 13 14 13 13 13 13 14 15 15 15 15 16 16 16 16 16 15 15 15 14 14 14 14 14 14 15 15 15 16 17 17
16 15 15 14 13 13 13 13 14 14 14 14 15 15 15 15 13 13 14 15 15 16 16 16 16 16 15 14 15 15 15 15 13 11 12 12 12 13 15 16 17 17 17
18 17 16 15 14 14 13 14 15 15 15 16 15 15 16 16 13 13 14 16 16 17 17 17 16 15 14 14 15 15 15 15 15 15 15 13 12 12 13 16 17 17 18
19 18 17 16 16 15 14 16 16 16 16 16 16 16 16 15 14 13 14 15 15 16 16 17 16 14 13 13 13 14 14 15 14 15 16 17 17 16 15 16 16 16 17
19 18 17 16 16 16 16 16 16 16 16 16 16 16 16 16 15 13 12 13 13 14 15 16 16 13 13 11 13 13 12 14 15 16 17 17 16 16 16 16 16 16 16
18 17 16 17 16 16 15 15 15 16 15 16 16 15 16 17 15 13 12 13 13 14 15 15 14 13 11 11 12 12 14 15 16 16 16 15 15 15 16 17 18 17 18
17 16 15 16 16 14 14 15 15 15 15 15 15 15 15 16 16 14 13 13 14 14 14 14 13 13 12 12 12 12 13 14 15 14 15 15 17 17 17 17 17 19 18
16 15 15 15 15 14 14 14 14 14 13 14 14 14 14 15 15 14 13 14 14 14 14 14 14 14 14 13 13 13 13 14 14 14 15 15 15 16 17 18 18 20 18
18 17 16 15 15 14 14 14 12 12 12 11 11 12 13 12 12 12 12 13 13 13 14 14 14 14 14 14 14 14 14 14 14 15 15 16 17 18 18 19 19 19 19
20 19 17 16 15 14 14 14 14 13 11 11 11 11 11 11 11 11 11 12 12 12 14 14 14 14 14 14 14 15 17 17 18 16 17 18 18 19 19 20 20 20 20
20 20 19 18 16 15 15 14 14 14 14 14 11 11 10 10 11 11 11 12 14 13 14 14 15 15 15 16 17 18 19 19 20 19 20 21 20 19 20 21 22 22 21
21 20 20 20 19 18 18 17 16 15 15 15 13 12 12 10 11 11 12 14 16 16 16 17 17 18 18 19 20 20 20 21 21 22 23 23 23 22 24 24 23 25 24
21 21 21 20 19 17 16 16 14 14 14 14 15 15 15 16 17 18 17 17 18 18 19 20 20 21 21 21 22 22 23 23 23 24 25 25 25 24 25 26 25 24 24
24 23 22 22 19 18 17 16 15 15 15 16 16 15 15 19 21 21 21 21 21 21 21 22 22 23 23 23 23 23 24 25 25 25 26 26 26 26 27 26 26 27 26
25 24 21 20 19 17 17 17 17 18 18 19 20 18 18 21 22 23 24 24 24 24 23 23 24 24 24 24 24 24 24 25 26 26 26 27 27 27 27 26 26 26 27
23 22 22 21 21 20 18 18 18 18 19 20 20 21 22 23 24 24 25 25 25 25 24 24 25 26 26 25 25 24 24 25 25 26 26 27 27 27 27 26 26 26 25
24 23 23 22 21 21 20 19 20 20 20 21 22 22 23 24 24 25 25 25 25 25 25 25 25 26 26 26 27 27 27 27 28 27 26 26 26 27 27 27 26 26 25
26 25 24 24 23 23 22 21 20 21 21 22 22 22 23 23 24 24 24 24 24 25 25 25 25 25 25 26 26 26 27 24 27 28 27 26 25 26 27 26 25 24 25
27 27 27 26 25 23 23 22 23 23 23 23 23 23 23 24 24 24 24 24 24 25 25 25 26 26 26 25 25 24 24 23 23 25 25 25 24 24 25 24 24 24 23